Altus AFB, OK

8:29 PM CST on February 25, 2017 (GMT -0600)
Altus Air Force Base

Weather History for KLTS - January, 2014

Change the Weather History Date:

Tuesday, January 7, 2014

  Actual Average Record
Temperature  
Mean Temperature 31 °F -  
Max Temperature 48 °F 49 °F 73 °F (2008)
Min Temperature 14 °F 26 °F -2 °F (2017)
Degree Days  
Heating Degree Days 34    
Moisture  
Dew Point 14 °F    
Average Humidity 56    
Maximum Humidity 80    
Minimum Humidity 31    
Precipitation  
Precipitation 0.00 in - - ()
Sea Level Pressure  
Sea Level Pressure 30.30 in    
Wind  
Wind Speed 9 mph (South)    
Max Wind Speed 21 mph    
Max Gust Speed 25 mph    
Visibility 10 miles    
Events      
Averages and records for this station are not official NWS values.
T = Trace of Precipitation, MM = Missing Value Source: NWS Daily Summary

Daily Weather History Graph

Daily Weather History Graph

Search for Another Location

Airport or City:

Trip Planner

Search our weather history database for the weather conditions in past years. The results will help you decide how hot, cold, wet, or windy it might be!

Date:

Astronomy

Jan. 07, 2014 Rise Set
Actual Time 7:44 AM CST 5:42 PM CST
Civil Twilight 7:17 AM CST 6:10 PM CST
Nautical Twilight 6:45 AM CST 6:41 PM CST
Astronomical Twilight 6:15 AM CST 7:11 PM CST
Moon 11:52 AM CST (1/7) No Moon Set
Length of Visible Light 10h 52m
Length of Day
9h 57m
Waxing Crescent, 46% of the Moon is Illuminated
Jan 7
Waxing Crescent
Jan 7
First Quarter
Jan 15
Full
Jan 23
Last Quarter
Jan 30
New

Hourly Weather History & Observations

Time (CST) Temp. Windchill Dew Point Humidity Pressure Visibility Wind Dir Wind Speed Gust Speed Precip Events Conditions
12:58 AM 14.0 °F 5.1 °F 7.0 °F 74% 30.50 in 10.0 mi SSW 5.8 mph - N/A   Clear
1:58 AM 14.0 °F 6.5 °F 7.0 °F 74% 30.48 in 10.0 mi South 4.6 mph - N/A   Clear
2:58 AM 14.0 °F 8.2 °F 6.8 °F 73% 30.47 in 10.0 mi South 3.5 mph - N/A   Clear
3:58 AM 14.7 °F 5.9 °F 7.9 °F 74% 30.45 in 10.0 mi SSE 5.8 mph - N/A   Clear
4:58 AM 17.6 °F 8.2 °F 10.4 °F 73% 30.43 in 10.0 mi SSW 6.9 mph - N/A   Clear
5:58 AM 18.1 °F 10.0 °F 10.9 °F 73% 30.42 in 10.0 mi SSW 5.8 mph - N/A   Clear
6:58 AM 17.1 °F 5.8 °F 10.4 °F 75% 30.41 in 10.0 mi South 9.2 mph - N/A   Clear
7:58 AM 14.0 °F 5.1 °F 9.0 °F 80% 30.41 in 10.0 mi SSE 5.8 mph - N/A   Clear
8:58 AM 22.1 °F 12.0 °F 14.4 °F 72% 30.42 in 10.0 mi South 9.2 mph - N/A   Clear
9:58 AM 31.1 °F 21.4 °F 13.6 °F 48% 30.40 in 10.0 mi South 12.7 mph - N/A   Clear
10:58 AM 37.2 °F 28.7 °F 13.5 °F 38% 30.38 in 10.0 mi SSW 13.8 mph - N/A   Clear
11:58 AM 41.4 °F 32.1 °F 13.8 °F 33% 30.31 in 10.0 mi SSW 20.7 mph - N/A   Clear
12:58 PM 45.3 °F 38.4 °F 16.5 °F 32% 30.26 in 10.0 mi South 16.1 mph - N/A   Clear
1:58 PM 47.8 °F - 18.0 °F 31% 30.23 in 10.0 mi South 19.6 mph 25.3 mph N/A   Clear
2:58 PM 48.2 °F - 18.3 °F 31% 30.19 in 10.0 mi South 17.3 mph 25.3 mph N/A   Clear
3:58 PM 48.6 °F - 19.4 °F 32% 30.19 in 10.0 mi South 16.1 mph - N/A   Clear
4:58 PM 48.4 °F - 19.2 °F 32% 30.16 in 10.0 mi South 16.1 mph - N/A   Clear
5:58 PM 38.3 °F 31.4 °F 17.6 °F 43% 30.16 in 10.0 mi SSE 10.4 mph - N/A   Clear
6:58 PM 30.2 °F 24.3 °F 15.1 °F 53% 30.19 in 10.0 mi SSE 5.8 mph - N/A   Clear
7:58 PM 30.9 °F 23.5 °F 17.2 °F 57% 30.18 in 10.0 mi SE 8.1 mph - N/A   Clear
8:58 PM 32.0 °F 24.2 °F 18.5 °F 58% 30.17 in 10.0 mi SE 9.2 mph - N/A   Clear
9:58 PM 27.9 °F 18.4 °F 17.4 °F 65% 30.16 in 10.0 mi SE 10.4 mph - N/A   Clear
10:58 PM 29.8 °F 20.3 °F 18.1 °F 62% 30.14 in 10.0 mi SE 11.5 mph - N/A   Clear
11:58 PM 30.9 °F 23.5 °F 17.1 °F 57% 30.13 in 10.0 mi SE 8.1 mph - N/A   Clear